This is the latest recevied weather packets stored in our database for station/object KD8OZS. If no packets are shown the sender has not sent any weather packets the latest 10 day(s).
| Time | Temp. | Humidity | Pressure | Rain* | Wind** | Luminosity | Snow |
|---|---|---|---|---|---|---|---|
| 1778227564 | 8.89° C | 80% | 1005.3 hPa | 0 mm | - | 0 W/m² | - |
| 1778227261 | 8.89° C | 80% | 1005.2 hPa | 0 mm | - | 0 W/m² | - |
| 1778226957 | 8.33° C | 79% | 1005 hPa | 0 mm | - | 0 W/m² | - |
| 1778226655 | 8.33° C | 82% | 1005.2 hPa | 0 mm | - | 0 W/m² | - |
| 1778226352 | 8.33° C | 82% | 1005.5 hPa | 0 mm | - | 0 W/m² | - |
| 1778226049 | 8.33° C | 81% | 1005.6 hPa | 0 mm | - | 0 W/m² | - |
| 1778225746 | 8.33° C | 80% | 1005.6 hPa | 0 mm | - | 0 W/m² | - |
| 1778225444 | 8.33° C | 79% | 1005.5 hPa | 0 mm | - | 0 W/m² | - |
| 1778225139 | 8.33° C | 80% | 1005.6 hPa | 0 mm | - | 0 W/m² | - |
| 1778224837 | 7.78° C | 81% | 1005.8 hPa | 0 mm | - | 0 W/m² | - |
| 1778224535 | 7.78° C | 81% | 1005.7 hPa | 0 mm | - | 0 W/m² | - |
| 1778224233 | 7.78° C | 81% | 1005.9 hPa | 0 mm | - | 0 W/m² | - |
| 1778223930 | 7.78° C | 81% | 1005.7 hPa | 0 mm | - | 0 W/m² | - |
| 1778223628 | 7.78° C | 80% | 1006 hPa | 0 mm | - | 0 W/m² | - |
| 1778223325 | 7.78° C | 81% | 1005.9 hPa | 0 mm | - | 0 W/m² | - |
| 1778223024 | 7.78° C | 79% | 1005.7 hPa | 0 mm | - | 0 W/m² | - |
| 1778222721 | 7.78° C | 81% | 1006 hPa | 0 mm | - | 0 W/m² | - |
| 1778222418 | 7.22° C | 85% | 1005.9 hPa | 0 mm | - | 0 W/m² | - |
| 1778222116 | 7.22° C | 86% | 1006 hPa | 0 mm | - | 0 W/m² | - |
| 1778221813 | 7.78° C | 86% | 1006 hPa | 0 mm | - | 0 W/m² | - |
| 1778221511 | 7.78° C | 85% | 1006.2 hPa | 0 mm | - | 0 W/m² | - |
| 1778221207 | 7.78° C | 84% | 1006.1 hPa | 0 mm | - | 0 W/m² | - |
| 1778220906 | 7.78° C | 83% | 1006.2 hPa | 0 mm | - | 0 W/m² | - |
| 1778220601 | 7.22° C | 85% | 1006.2 hPa | 0 mm | - | 0 W/m² | - |
| 1778220299 | 7.22° C | 86% | 1006.4 hPa | 0 mm | - | 0 W/m² | - |
* Rain latest hour (hover to see other rain measurements)
** Current wind speed in m/s (hover to see current wind gust speed)